Carolina, PR (00979)

8:49 PM AST on February 19, 2017 (GMT -0400)
Ocean Park | | Change Station
Active Advisory: Coastal Hazard Statement Active Notice: Coastal Hazard Statement

Elev 15 ft 18.45 °N, 66.05 °W | Updated 3 minutes ago

Mostly Cloudy
Mostly Cloudy
76.5 °F
Feels Like 77 °F
N
0.0
Wind Variable Wind from SSE
Gusts 4.0 mph

Today
High -- | Low -- °F
--% Chance of Precip.
Yesterday
High -- | Low -- °F
Precip. -- in
Pressure 30.03 in
Visibility 10.0 miles
Clouds Few 2200 ft
Few 8500 ft
Mostly Cloudy 10000 ft
Heat Index 77 °F
Dew Point 72 °F
Humidity 85%
Rainfall 0.15 in
Snow Depth Not available.
6:49 AM 6:26 PM
Last Quarter, 39% visible
METAR TJSJ 192356Z 14003KT 10SM FEW022 FEW085 BKN100 25/22 A3003 RMK AO2 SLP168 T02500222 10267 20250 53010
Pressure 30.03 in
Visibility 10.0 miles
Clouds Few 2200 ft
Few 8500 ft
Mostly Cloudy 10000 ft
Heat Index 77 °F
Dew Point 72 °F
Humidity 85%
Rainfall 0.15 in
Snow Depth Not available.
6:49 AM 6:26 PM
Last Quarter, 39% visible
METAR TJSJ 192356Z 14003KT 10SM FEW022 FEW085 BKN100 25/22 A3003 RMK AO2 SLP168 T02500222 10267 20250 53010

Get Your Daily Forecast Email!

Thanks for signing up!

Be on the lookout for a verification email in your inbox.

You'll start receiving the daily forecast at 8 AM.

×

10-Day Weather Forecast

Almanac

Astronomy

Feb. 19, 2017 Rise Set
Actual Time
Civil Twilight
Nautical Twilight
Astronomical Twilight
Moon
Length of Visible Light
Length of Day
Tomorrow will be .
, % of the Moon is Illuminated

Today's Extremes

State Highs State Lows

Community

WunderPhotos

Upload Photos

1,962,540 photos uploaded!

WunderBlog® & News

Nearby

Air Quality

  Air Quality AQ Index Pollutant
Not available.

Snow Depth

Station Depth Elevation

Earthquake Activity

City Distance Mag. Time & Date
Minimum magnitude displayed is 2.5.

Coastal Water Temperatures

Place Temperature

Stations

Nearby Weather Stations

Station Location Temp. Windchill Dew Point Humidity Wind Precip. Elev Updated Type
                   

Watches & Warnings

Coastal Hazard Statement
Issued: 8:38 PM AST Feb. 19, 2017 – National Weather Service

... High rip current risk remains in effect until 6 am AST
Monday...

* location... beaches along the north coast of Puerto Rico.

* Timing... through early Monday morning.

* Impacts... strong currents that can carry away even the best
swimmers.

Precautionary/preparedness actions...

There is a high risk of rip currents.

Rip currents are powerful channels of water flowing quickly away
from shore... which occur most often at low spots or breaks in The
Sandbar and in the vicinity of structures such as groins...
jetties and piers. Heed the advice of lifeguards... beach patrol
flags and signs.